1998-067WY

Last updated on Tue Dec 17 2024 00:02:10 GMT+0000 (Coordinated Universal Time)

1 60958U 98067WY 24350.27755697 .12166022 12503-4 66954-3 0 9998 2 60958 51.6051 121.8277 0006746 294.3496 65.6826 16.42103511 16943

Satellite not in orbit